Regional Weather Roundup
Issued by NWS San Angelo, TX

Current Version | Previous Version | Text Only | Print | Product List | Glossary On
Versions: 1 2 3 4 5 6 7 8 9 10 11 12 13 14 15 16 17 18 19 20 21 22 23 24 25 26 27 28 29 30 31 32 33 34 35 36 37 38 39 40 41 42 43 44 45 46 47 48 49 50
000
ASUS44 KSJT 211210
RWRSJT
WEST CENTRAL TEXAS REGIONAL WEATHER ROUNDUP
NATIONAL WEATHER SERVICE SAN ANGELO TX
700 AM CDT MON APR 21 2014

NOTE: "FAIR" INDICATES FEW OR NO CLOUDS BELOW 12,000 FEET WITH NO
SIGNIFICANT WEATHER AND/OR OBSTRUCTIONS TO VISIBILITY.

TXZ049-054-064>066-071>073-076>078-098-099-113-114-127-128-139-140-
154-155-168>170-211300
...LOCATIONS ACROSS WEST CENTRAL TEXAS...

CITY           SKY/WX    TMP DP  RH WIND       PRES   REMARKS
SAN ANGELO     CLOUDY    68  62  81 SW16G23   30.02R
ABILENE        CLEAR     64  60  87 SW8       29.98S
DYESS AFB      PTCLDY    64  60  87 SW6       29.98R
JUNCTION       CLOUDY    67  62  84 SW14G20   30.04R
SWEETWATER     CLOUDY    65  61  86 SW16      30.04R
BROWNWOOD      CLOUDY    64  63  94 S7        30.02R
COLEMAN        CLOUDY    64  62  92 SW7       30.01S
SONORA         CLOUDY    66  64  94 SW9       30.06R
OZONA          FAIR      64  61  88 S7G18     30.09R
BRADY          CLOUDY    66  64  94 SW10      30.02R
$$

TEXAS PANHANDLE/OKLAHOMA PANHANDLE

CITY           SKY/WX    TMP DP  RH WIND       PRES   REMARKS
AMARILLO       CLEAR     52  46  80 NW12      30.04R
BORGER         CLEAR     51  49  92 W5        30.02R
CANADIAN       CLOUDY    59  57  94 NW3       29.99R
DALHART        CLEAR     49  41  74 NW8       30.08R
DUMAS          SUNNY     53  44  70 NW14      30.04R
GUYMON         NOT AVBL
HEREFORD       SUNNY     51  42  70 NW10      30.07R
PAMPA          FOG       51  50  96 W9        30.02R VSB 1/4
PERRYTON       CLOUDY    55  55  99 N8        30.01R VSB 1/2
$$

SOUTHERN PANHANDLE/SOUTH PLAINS/ROLLING PLAINS

CITY           SKY/WX    TMP DP  RH WIND       PRES   REMARKS
LUBBOCK        PTCLDY    50  46  86 W6        30.03R
SNYDER         CLOUDY    62  60  93 SW12      30.02S FOG
CHILDRESS      CLOUDY    60  60 100 NW8       29.97R
SEMINOLE       SUNNY     55  54  95 W5        30.07R FOG
$$

PERMIAN BASIN

CITY           SKY/WX    TMP DP  RH WIND       PRES   REMARKS
MIDLAND        CLOUDY    63  61  93 SW16      30.04R
ODESSA         CLOUDY    62  60  93 S10       30.06R FOG
WINK           CLOUDY    57  56  96 NE3       30.04R
$$

FAR WEST/SOUTHWEST MOUNTAINS/TRANS PECOS

CITY           SKY/WX    TMP DP  RH WIND       PRES   REMARKS
ALPINE         SUNNY     55  42  61 CALM      30.20R
DRYDEN           N/A     69  64  84 CALM      30.04R
EL PASO        PTCLDY    56  43  61 S6        30.10R
FORT STOCKTON  CLEAR     58  54  86 SW10      30.06R
GUADALUPE PASS CLEAR     56  35  45 S7        30.18R
MARFA          CLEAR     43  36  75 N8        30.18S WCI  38
PECOS          SUNNY     53  45  72 SW5       30.05R
$$

DALLAS/FORT WORTH METROPLEX

CITY           SKY/WX    TMP DP  RH WIND       PRES   REMARKS
DFW AIRPORT    CLOUDY    63  60  90 S12       29.99F
FTW MEACHAM    CLOUDY    64  60  87 S10       29.98F
DAL-EXECUTIVE  CLOUDY    64  60  87 S6        30.01S
GRAND PRAIRIE  CLOUDY    64  59  82 S9        30.03S
ADDISON        MOCLDY    63  59  88 SE10      30.01F
MESQUITE       CLOUDY    63  59  88 SE6       30.03R
LANCASTER      CLOUDY    63  58  85 S5        30.03S
$$

NORTH CENTRAL TEXAS

CITY           SKY/WX    TMP DP  RH WIND       PRES   REMARKS
SHRMAN/DENISON PTSUNNY   63  57  82 SE9       30.00R
GAINESVILLE    CLOUDY    61  59  94 SE8       30.00R
BRIDGEPORT     CLOUDY    62  62  97 S7        29.99S FOG
DENTON         CLOUDY    62  60  93 S12       29.98S
WAXAHACHIE     CLOUDY    63  59  88 S8        30.03S
GRANBURY       CLOUDY    64  60  85 SE9       30.01R
$$

WESTERN NORTH TEXAS

CITY           SKY/WX    TMP DP  RH WIND       PRES   REMARKS
WICHITA FALLS  CLOUDY    63  61  93 S13       29.94R FOG
VERNON         CLOUDY    66  63  90 S8        29.94R
BRECKENRIDGE   CLOUDY    66  64  92 S6        29.96S
COMANCHE       CLOUDY    64  63  97 S7        30.00S
$$

CENTRAL AND SOUTH CENTRAL TEXAS

CITY           SKY/WX    TMP DP  RH WIND       PRES   REMARKS
AUSTIN/BERGSTM CLOUDY    65  63  93 S6        30.03R
WACO           CLOUDY    65  61  87 S13       30.03R
HILLSBORO      CLOUDY    64  59  84 S12       30.03R
TEMPLE         CLOUDY    63  57  82 S9        30.06R
KILLEEN-GRAY   CLOUDY    61  59  94 S3        30.03R
FORT HOOD      CLOUDY    63  57  82 CALM      30.03R
GEORGETOWN     CLOUDY    66  61  82 S12       30.03R
LAGO VISTA     CLOUDY    65  62  89 S7        30.04R
SAN MARCOS     CLOUDY    66  61  82 S6        30.06R
NEW BRAUNFELS  CLOUDY    66  63  90 S7        30.03R
RANDOLPH AFB   CLOUDY    66  62  88 S7        30.04R
SAN ANTONIO    CLOUDY    68  63  84 S7        30.04R
STINSON        CLOUDY    67  63  87 SE3       30.02R
PLEASANTON     NOT AVBL
LA GRANGE      CLOUDY    67  65  94 S6        30.04S
GIDDINGS       CLOUDY    65  63  93 S6        30.08S
$$

EAST TEXAS

CITY           SKY/WX    TMP DP  RH WIND       PRES   REMARKS
PARIS          MOCLDY    63  57  82 S9        30.01F
CLARKSVILLE    CLOUDY    63  62  97 CALM      30.02R
TYLER          PTCLDY    62  55  77 S6        30.04S
LONGVIEW       PTCLDY    59  56  89 SE6       30.04S
PALESTINE      CLOUDY    64  57  80 S3        30.08R
NACOGDOCHES    CLOUDY    55  52  88 CALM      30.08R
$$

TEXAS HILL COUNTRY AND EDWARDS PLATEAU

CITY           SKY/WX    TMP DP  RH WIND       PRES   REMARKS
LLANO          CLOUDY    66  63  88 CALM      30.06R
HORSESHOE BAY  CLOUDY    66  62  84 S3        30.02R
KERRVILLE      CLOUDY    63  61  94 S3        30.05R FOG
FREDERICKSBRG  CLOUDY    64  62  94 SW10      30.04S FOG
ROCKSPRINGS    CLOUDY    63  63 100 S7        30.08S FOG
HONDO          CLOUDY    68  63  84 SE6       30.05S
UVALDE         CLOUDY    65  64  97 E7        30.04R
DEL RIO        PTCLDY    68  64  87 E9        30.01R
$$

SOUTHEAST TEXAS

CITY           SKY/WX    TMP DP  RH WIND       PRES   REMARKS
COLLEGE STN    CLOUDY    65  63  93 S8        30.05S
CALDWELL       CLOUDY    64  64 100 S7        30.07S
CROCKETT       PTSUNNY   64  63  94 CALM      30.10R
BRENHAM        CLOUDY    64  63  94 S7        30.06S
HUNTSVILLE     CLOUDY    64  61  90 S7        30.06R
CONROE         CLEAR     62  61  96 S6        30.08S FOG
HOUSTON BUSH   MOCLDY    63  62  97 S3        30.08S
HOUSTON HOBBY  MOCLDY    63  61  93 SE5       30.08R
PERLAND        MOCLDY    61  58  90 CALM      30.10S
WHARTON        MOSUNNY   61  61  97 E3        30.07S FOG
$$

THE UPPER TEXAS COAST

CITY           SKY/WX    TMP DP  RH WIND       PRES   REMARKS
ORANGE         FOG       55  55 100 CALM      30.11R VSB<1/4
PORT ARTHUR    FOG       54  54 100 S5        30.10R VSB 1/4
GALVESTON      MOCLDY    67  66  97 SE6       30.09S
ANGLETON       FOG       59  59 100 E3        30.08S VSB 1/2
BAY CITY       CLOUDY    62  62 100 E5        30.07R FOG
$$

TEXAS COASTAL BEND, RIO GRANDE PLAINS DEEP SOUTH TEXAS

CITY           SKY/WX    TMP DP  RH WIND       PRES   REMARKS
VICTORIA       CLOUDY    67  65  93 SE7       30.06R
BEEVILLE       CLOUDY    68  67  97 NE3       30.05R
ROCKPORT       CLOUDY    70  66  87 SE8       30.05R
PORT ARANSAS   CLOUDY    69  67  95 SE7       30.05S
PORT LAVACA    CLOUDY    67  65  94 SE3       30.06R
CORPUS CHRISTI LGT RAIN  70  66  87 CALM      30.05R
KINGSVILLE NAS MOCLDY    69  67  93 E5        30.03R
COTULLA        CLOUDY    69  63  81 SE8       30.03R
LAREDO         CLOUDY    72  65  78 SE8       30.04R
BROWNSVILLE    CLOUDY    69  68  96 E5        30.03R
PORT ISABEL    CLOUDY    70  67  90 SE6       30.02R
HEBBRONVILLE   CLOUDY    67  65  91 E5        30.04R
MCALLEN        CLOUDY    70  67  90 SE9       30.01R
WESLACO        CLOUDY    69  65  85 SE6       30.01S
FALFURRIAS     CLOUDY    68  65  90 E5        30.03R
EDINBURG       CLOUDY    69  65  88 E6        30.02S
$$



USA.gov is the U.S. government's official web portal to all federal, state and local government web resources and services.